Find Starlink 30285

NORAD ID: 57840 Int'l Des: 2023-141 Owner: SPXS Country: US Constellation: starlink operational
LEOCIRCULAR

現在のビュー

3D地球を読み込み中...

About Starlink 30285

Starlink 30285 (NORAD 57840) is a starlink constellation satellite (v2 mini) launched Sep 12, 2023 by SPXS of US. It operates in LEO, CIRCULAR orbit with a mass of 730.00 kg.

次回通過

Passes for default location (London). Set your location on the main map for personalized predictions.

高度履歴

Loading altitude history...

軌道要素

1 57840U 23141A 26263.94629400 .00000687 00000-0 33889-4 0 9994
2 57840 53.1600 95.6826 0001077 83.2058 276.9066 15.31703399170249
Epoch: Sep 20, 2026 • Age: 23 hours

現在のステータス

高度 482.3 km
遠地点 / 近地点 N/A
速度 7.62 km/s
衛星直下点 -34.97°S, 88.92°E
打ち上げ日 Sep 12, 2023
運用期間 3 years
タイプ internet

技術仕様

分類 Payload
質量 730.00 kg
乾燥質量 700.00 kg
長さ 0.30 m
スパン 29.00 m
形状 ? Box + pan
製造者 SPXS
バスタイプ Starlink V2M
フェーズステータス In Orbit
所有者/国 SPXS/US

Most Searched